Skip Page Navigation
NASA JPL Caltech
NASA Logo - Jet Propulsion Laboratory + View the NASA Portal
+ Center for Near-Earth Object Studies
JPL Home Earth Solar System Stars & Galaxies Technology
JPL Solar System Dynamics
BODIES ORBITS EPHEMERIDES TOOLS PHYSICAL DATA DISCOVERY FAQ SITE MAP
IMPORTANT: The SSD Announcement email list is now available. Major changes are coming in the near future, including possible hostname and/or URL changes. To be notified of such changes, subscribe to this email list.

Please visit this page for more details.


JPL Small-Body Database Browser
Search: [ help ]  
65199 (2002 CP287)
Classification: Main-belt Asteroid          SPK-ID: 2065199
Ephemeris | Orbit Diagram | Orbital Elements | Mission Design | Physical Parameters | Discovery Circumstances | Close-Approach Data ]

[ show orbit diagram ]
Orbital Elements at Epoch 2459000.5 (2020-May-31.0) TDB
Reference: JPL 14 (heliocentric ecliptic J2000)
 Element Value Uncertainty (1-sigma)   Units 
e .01519369331378509 5.0967e-08  
a 3.077545977969582 2.5328e-08 au
q 3.030786688221239 1.6699e-07 au
i .7778438691810073 5.0778e-06 deg
node 132.3010679569148 0.00037291 deg
peri 184.7315023143589 0.00040954 deg
M 306.6635568777609 0.00016832 deg
tp 2459292.664066923928
(2021-Mar-19.16406692)
0.00092202 TDB
period 1971.992467730916
5.40
2.4344e-05
6.665e-08
d
yr
n .1825564782274427 2.2536e-09 deg/d
Q 3.124305267717924 2.5713e-08 au
  Orbit Determination Parameters
   # obs. used (total)      357  
   data-arc span      9888 days (27.07 yr)  
   first obs. used      1992-03-26  
   last obs. used      2019-04-22  
   planetary ephem.      DE431  
   SB-pert. ephem.      SB431-N16  
   condition code      0  
   norm. resid. RMS      .61583  
   source      ORB  
   producer      Otto Matic  
   solution date      2019-Jul-13 04:04:39  

Additional Information
 Earth MOID = 2.01667 au 
 Jupiter MOID = 1.90067 au 
 T_jup = 3.229 
[ show covariance matrix ]

Ephemeris | Orbit Diagram | Orbital Elements | Mission Design | Physical Parameters | Discovery Circumstances | Close-Approach Data ]

Physical Parameter Table
Parameter Symbol Value Units Sigma Reference Notes
absolute magnitude H 15.6   n/a MPO432204  

65199 (2002 CP287)          Discovered 2002-Feb-09 by Spacewatch at Kitt Peak
Reference: 20030614/Numbers.arcLast Updated: 2004-04-19

[ show close-approach data ]
Alternate Designations
 2002 CP287 = 1997 CF12 
Ephemeris | Orbit Diagram | Orbital Elements | Mission Design | Physical Parameters | Discovery Circumstances | Close-Approach Data ]
ABOUT SSD CREDITS/AWARDS PRIVACY/COPYRIGHT GLOSSARY LINKS
FirstGov 2020-Mar-30 14:25 UT
(server date/time)  
NASA Home Page
Site Manager:   Ryan S. Park
Webmaster  Alan B. Chamberlin